Change the Weather History Date:

Sunday, October 7, 2012

  Actual Average (KFHU) Record (KFHU)
Temperature  
Mean Temperature 68 °F -  
Max Temperature 81 °F 81 °F 91 °F (1987)
Min Temperature 54 °F 59 °F 46 °F (2007)
Cooling Degree Days 2    
Growing Degree Days 18 (Base 50)    
Moisture  
Dew Point 34 °F    
Average Humidity 32    
Maximum Humidity 49    
Minimum Humidity 15    
Precipitation  
Precipitation 0.00 in - - ()
Sea Level Pressure  
Sea Level Pressure 29.84 in    
Wind  
Wind Speed 7 mph (WSW)    
Max Wind Speed 14 mph    
Max Gust Speed -    
Averages and records for this station are not official NWS values.
T = Trace of Precipitation, MM = Missing Value Source: NWS Daily Summary

Daily Weather History Graph

Daily Weather History Graph

Search for Another Location

Airport or City:

Trip Planner

Search our weather history database for the weather conditions in past years. The results will help you decide how hot, cold, wet, or windy it might be!

Date:

Astronomy

Oct. 07, 2012 Rise Set
Actual Time 6:19 AM MST 5:58 PM MST
Civil Twilight 5:55 AM MST 6:22 PM MST
Nautical Twilight 5:27 AM MST 6:50 PM MST
Astronomical Twilight 4:58 AM MST 7:19 PM MST
Moon 11:27 PM MST 12:44 PM MST
Length of Visible Light 12h 27m
Length of Day
11h 38m
Waning Gibbous, 55% of the Moon is Illuminated
Oct 7
Waning Gibbous
Oct 8
Last Quarter
Oct 15
New
Oct 21
First Quarter
Oct 29
Full

Hourly Weather History & Observations

Time (MST) Temp. Dew Point Humidity Pressure Visibility Wind Dir Wind Speed Gust Speed Precip Events Conditions
12:56 AM 60.1 °F 34.0 °F 38% 29.83 in - SSW 8.1 mph - N/A   Clear
1:56 AM 59.0 °F 34.0 °F 39% 29.83 in - SSW 4.6 mph - N/A   Clear
2:56 AM 54.0 °F 34.0 °F 47% 29.83 in - West 9.2 mph - N/A   Clear
3:56 AM 54.0 °F 35.1 °F 49% 29.83 in - WSW 10.4 mph - N/A   Clear
4:56 AM 55.0 °F 35.1 °F 47% 29.83 in - WSW 8.1 mph - N/A   Clear
5:56 AM 59.0 °F 34.0 °F 39% 29.84 in - SSW 4.6 mph - N/A   Clear
6:56 AM 60.1 °F 35.1 °F 39% 29.86 in - Variable 3.5 mph - N/A   Clear
7:56 AM 60.1 °F 39.0 °F 46% 29.89 in - Calm Calm - N/A   Clear
8:56 AM 71.1 °F 37.9 °F 30% 29.89 in - Calm Calm - N/A   Clear
10:56 AM 75.9 °F 37.9 °F 25% 29.86 in - Variable 5.8 mph - N/A   Unknown
11:56 AM 78.1 °F 37.0 °F 23% 29.83 in - NW 6.9 mph - N/A   Clear
1:56 PM 81.0 °F 28.9 °F 15% 29.79 in - West 9.2 mph - N/A   Clear
2:56 PM 81.0 °F 34.0 °F 18% 29.79 in - WSW 11.5 mph - N/A   Clear
3:56 PM 81.0 °F 34.0 °F 18% 29.79 in - WSW 5.8 mph - N/A   Clear
4:56 PM 80.1 °F 32.0 °F 17% 29.80 in - West 8.1 mph - N/A   Partly Cloudy
5:56 PM 73.0 °F 34.0 °F 24% 29.82 in - WSW 9.2 mph - N/A   Clear
6:56 PM 71.1 °F 30.9 °F 23% 29.85 in - SW 13.8 mph - N/A   Unknown
8:56 PM 61.0 °F 32.0 °F 34% 29.89 in - West 6.9 mph - N/A   Clear
9:56 PM 59.0 °F 30.9 °F 35% 29.88 in - SW 8.1 mph - N/A   Clear
10:56 PM 63.0 °F 30.0 °F 29% 29.86 in - SW 10.4 mph - N/A   Clear
11:56 PM 61.0 °F 30.9 °F 32% 29.86 in - SW 9.2 mph - N/A   Clear